Location: ??????
(33.3472°N, 35.4764°E)
Time: 04:51:39
(UTC+00:00)

Cosmos 1238 Rocket - Pass Details

Date: 21 August 2019
Orbit: 374 x 1035 km, 82.9° (Epoch: 17 September)

Event Time Altitude Azimuth Distance (km) Brightness Sun altitude
Rises 01:47:49 0° 351° (N) 2,254 6.2 -15.8°
Reaches altitude 10° 01:49:43 10° 349° (N) 1,423 5.1 -15.4°
Maximum altitude 01:52:44 72° 265° (W) 438 2.1 -14.8°
Drops below altitude 10° 01:56:05 10° 181° (S) 1,582 4.9 -14.2°
Sets 01:58:18 0° 179° (S) 2,543 6.0 -13.8°
